STARLINK-36633, 67632

Orbit data source: Space-Track

STARLINK-36633, 67632 is a payload satellite owned by SpaceX/Seattle (US) in LEO that was launched on Fri, 30 Jan 2026 UTC via an FALCON 9 launch vehicle from the Air Force Eastern Test Range (AFETR). Payload-class satellites include a variety of spacecraft equipped with specific instruments for various scientific and technological missions. These include communications satellites like Starlink; space stations such as the ISS; scientific satellites like the Hubble; Earth observation satellites from companies like Planet Labs, Umbra, and HawkEye 360; GPS; miniature CubeSats for education and research; and military/defense satellites.

Loading next visibility...
Identifier
67632, 2026-020R
Orbit
LEO
Country
Flag of USUS
Related business
Manufacturer
SpaceX/Seattle
Mission
Operational spacecraft
Bus & Motor
STARLINK V2MO, Unknown motor
Mass
575 kg wet, ~530 kg dry
Launch date (UTC)
2026-01-30 (3 months ago)
Launch vehicle
FALCON 9
Launch site
Air Force Eastern Test Range (AFETR)
Object type
Payload
Rocket body
Debris
Shape & HBR
Unknown shape, 17.7 m
Radar Cross Section
RCS unknown

Expand to show TLE details & history
Last TLE update: 18 hours ago

TLE from 18 hours ago
0 STARLINK-36633
1 67632U 26020R   26106.76249387  .00006303  00000-0  23832-3 0  9998
2 67632  43.0007 284.9959 0001748 270.0299  90.0353 15.27586406 11933
Epoch: 2026-04-16T18:17Z
TLE epoch observation values (Epoch: 2026-04-16T18:17:59.470Z)
Latitude
0.00003°
Longitude
165.59276°
Altitude
482.806 km
Speed
7.626 km/s
True Right ascension
18h 59m 59s
True Declination
0° 00' 00"
Sunlit
Object was in daylight at epoch
Visualization orbit readout
Latitude
Unknown
Longitude
Unknown
Altitude
Unknown
Speed
Unknown
Apparent Right ascension
Unknown
Apparent Declination
Unknown
Sunlit
N/A
Visualization observer readout
Local Sidereal Time
19:14:36
Azimuth
Unknown
Elevation
Unknown
Doppler factor
Unknown
Orbital elements
Apogee altitude
486.175 km
Perigee altitude
483.775 km
Semi-major axis
6,863.112 km
Eccentricity
0.00017
Inclination
43.0007°
RAAN
284.9959°
Arg. of periapsis
270.0299°
True anomaly
90.05533°
Mean anomaly
90.0353°
Eccentric anomaly
90.04532°
Mean motion
3.81735 °/min
Orbital period
94.31 mins
BSTAR
0.00023832
Loading maneuver chart data...
Computing Atmospheric mass density...
Loading historical data...
Loading historical data...
Loading historical data...
Loading historical data...
Loading historical data...
Loading historical data...
Loading historical data...

Documentation

Showing up to 5 results
|